This demonstration page uses our WeatherBlox Daily Observations layout. Learn more.

Left ArrowRight Arrow

39.01783, -85.05884

Hourly Observations for October 12, 2019

Temp ( °F °C ) Dew Point ( °F °C ) Humidity (%) Winds ( mph kmh ) Pressure ( in mb ) Visibility ( mi km ) Precip ( " mm )
12:52 am 00:52 Cloudy with Light Rain 47 8.3 44 6.7 90 90 NNW 10 17 30.05 1018 7 11 0.01 0.25
1:39 am 01:39 Cloudy with Light Rain 45 7.2 41 5 86 86 NW 16 26 30.09 1019 10 16 0.02 0.51
1:52 am 01:52 Cloudy 45 7.2 41 5 86 86 WNW 15 24 30.06 1018 10 16 0.02 0.51
2:07 am 02:07 Cloudy 45 7.2 40 4.4 83 83 WNW 14 22 30.11 1020 10 16 0.00 0.00
2:23 am 02:23 Cloudy 44 6.7 40 4.4 85 85 WNW 10 17 30.10 1019 10 16 0.00 0.00
2:52 am 02:52 Cloudy 44 6.7 40 4.4 85 85 WNW 12 19 30.08 1019 10 16 0.00 0.00
3:24 am 03:24 Cloudy 44 6.7 40 4.4 85 85 WNW 9 15 30.11 1020 10 16 0.00 0.00
3:52 am 03:52 Cloudy 44 6.7 39 3.9 83 83 WNW 10 17 30.08 1019 10 16 0.00 0.00
4:19 am 04:19 Cloudy 43 6.1 36 2.2 76 76 NW 13 20 30.12 1020 10 16 0.00 0.00
4:52 am 04:52 Mostly Cloudy 42 5.6 33 0.6 71 71 NW 9 15 30.10 1019 10 16 0.00 0.00
5:52 am 05:52 Mostly Clear 38 3.3 32 0 79 79 W 6 9 30.13 1020 10 16 0.00 0.00
6:52 am 06:52 Clear 38 3.3 32 0 79 79 Calm 30.14 1021 10 16 0.00 0.00
7:52 am 07:52 Sunny 36 2.2 32 0 86 86 W 8 13 30.15 1021 10 16 0.00 0.00
8:52 am 08:52 Sunny 39 3.9 33 0.6 79 79 W 8 13 30.17 1022 10 16 0.00 0.00
9:52 am 09:52 Mostly Sunny 42 5.6 33 0.6 71 71 W 10 17 30.19 1022 10 16 0.00 0.00
10:52 am 10:52 Mostly Sunny 45 7.2 28 -2.2 52 52 W 14 22 30.19 1022 10 16 0.00 0.00
11:52 am 11:52 Sunny 47 8.3 31 -0.6 54 54 W 9 15 30.19 1022 10 16 0.00 0.00
12:52 pm 12:52 Sunny 49 9.4 29 -1.7 46 46 W 7 11 30.18 1022 10 16 0.00 0.00
1:52 pm 13:52 Sunny 52 11.1 29 -1.7 41 41 undefined N/A 30.15 1021 10 16 0.00 0.00
2:52 pm 14:52 Sunny 54 12.2 28 -2.2 37 37 WSW 12 19 30.13 1020 10 16 0.00 0.00
3:52 pm 15:52 Sunny 55 12.8 27 -2.8 34 34 W 8 13 30.11 1020 10 16 0.00 0.00
4:52 pm 16:52 Sunny 56 13.3 26 -3.3 32 32 WSW 9 15 30.10 1019 10 16 0.00 0.00
5:52 pm 17:52 Sunny 55 12.8 27 -2.8 34 34 SSW 7 11 30.09 1019 10 16 0.00 0.00
6:52 pm 18:52 Mostly Sunny 51 10.6 29 -1.7 43 43 SSW 7 11 30.09 1019 10 16 0.00 0.00
7:52 pm 19:52 Clear 48 8.9 31 -0.6 52 52 S 6 9 30.09 1019 10 16 0.00 0.00
8:52 pm 20:52 Clear 47 8.3 31 -0.6 54 54 S 5 7 30.09 1019 10 16 0.00 0.00
9:52 pm 21:52 Clear 44 6.7 32 0 63 63 S 6 9 30.08 1019 10 16 0.00 0.00
10:52 pm 22:52 Clear 42 5.6 33 0.6 71 71 S 6 9 30.07 1018 10 16 0.00 0.00
11:52 pm 23:52 Clear 42 5.6 32 0 68 68 S 6 9 30.06 1018 10 16 0.00 0.00

Powered by AerisWeather